Regional Weather Roundup
Issued by NWS

Home | Current Version | Previous Version | Graphics & Text | Print | Product List | Glossary On
Versions: 1 2 3 4 5 6 7 8 9 10 11 12 13 14 15 16 17 18 19 20 21 22 23 24 25 26 27
000
ASUS45 KCYS 161710
RWRWY

WYOMING REGIONAL WEATHER ROUNDUP
NATIONAL WEATHER SERVICE CHEYENNE WY
1100 AM MDT WED APR 16 2014

NOTE:  "FAIR" INDICATES FEW OR NO CLOUDS BELOW 12,000 FEET
WITH NO SIGNIFICANT WEATHER AND/OR OBSTRUCTIONS TO VISIBILITY.

WYZ001-161800-
YELLOWSTONE NATIONAL PARK

CITY           SKY/WX    TMP DP  RH WIND       PRES   REMARKS
LK YELLOWSTONE   N/A     23  15  71 E3        29.99S
W YELLOWSTONE  NOT AVBL

$$
WYZ002>013-054>058-071-098>099-161800-
NORTHERN WYOMING

CITY           SKY/WX    TMP DP  RH WIND       PRES   REMARKS
JACKSON        MOSUNNY   34  21  60 MISG      30.01S
CODY           PTSUNNY   43  21  42 CALM      29.95S
GREYBULL       MOSUNNY   46  29  51 NW17      29.97S
WORLAND        SUNNY     45  28  51 N13       29.98R
SHERIDAN       PTSUNNY   41  32  70 NW22G30   29.98R
BUFFALO        PTSUNNY   37  31  78 N23       29.97R WCI  26
GILLETTE       MOSUNNY   42  28  57 NW20G25   29.96R
HULETT         CLOUDY    41  32  70 N9        29.96
NEWCASTLE      FAIR      41  30  65 NW16G26   29.93

$$
WYZ014>020-022>026-101>103-161800-
CENTRAL WYOMING

CITY           SKY/WX    TMP DP  RH WIND       PRES   REMARKS
BIG PINEY      SUNNY     38  13  35 NW8       30.00S WCI  32
PINEDALE       SUNNY     32  21  64 NW13      30.01R WCI  22
DUBOIS         FAIR      34  18  51 N9        29.95S WCI  26
LANDER         SUNNY     41  21  44 VRB5      29.97R
RIVERTON       MOSUNNY   40  25  55 SE3       29.98R
CASPER         CLOUDY    36  31  82 E6        29.98R WCI  31
DOUGLAS        CLOUDY    39  30  70 NW13      29.98R WCI  31

$$
WYZ021-027>030-104>119-161800-
SOUTHERN WYOMING

CITY           SKY/WX    TMP DP  RH WIND       PRES   REMARKS
EVANSTON       PTSUNNY   41  12  30 W13G20    30.00R
KEMMERER       MOSUNNY   37  12  35 W14       30.01R WCI  29
FORT BRIDGER   FAIR      41  14  33 NW7       30.04R
ROCK SPRINGS   SUNNY     40   4  22 NW9       29.99S WCI  34
DIXON          FAIR      41  14  33 W7G16     30.04R
RAWLINS        FLURRIES  34  23  64 CALM      29.99R
SARATOGA       FAIR      37  18  44 W13G20    29.99R WCI  29
LARAMIE        PTSUNNY   35  26  69 NW18      29.95R WCI  24
CHEYENNE       CLOUDY    38  25  59 N14G23    29.95R WCI  30
TORRINGTON     PTSUNNY   46  26  45 NW15G28   29.93R
PINE BLUFFS    CLOUDY    43  27  52 NW28      29.94R

$$



USA.gov is the U.S. government's official web portal to all federal, state and local government web resources and services.